www.pogodaiklimat.ru

Погода и климат >> Архив погоды >> Молдова >> Бельцы


ПОГОДА в Бельцах

  • Прогноз погоды в Бельцах
  • Монитор погоды в Бельцах

АРХИВ ПОГОДЫ в Бельцах

Время (UTC), дата Ветер
(напр.,м/с)
 
Видим.   Явления Облачность Т
(С)
Тd
(С)
f
(%)
Тe
(С)
Тes
(С)
Комфортность P
(гПа)
Po
(гПа)
Тmin
(С)
Tmax
(С)
R
(мм)
R24
(мм)
S
(см)
00 9.09 штиль 0 10 км ясно +13.2 +7.9 70 +13 +13 1023.7 1004.7
03 9.09 штиль 0 10 км 6/0
[Ci fib]
+11.2 +7.7 79 +11 +11 1023.4 1004.2
06 9.09 СВ 1 10 км 8/0
[Ci fib]
+18.8 +6.9 46 +20 +23 1022.7 1004.0 +10.6
09 9.09 В 3 10 км 6/0
[Cs]
+25.8 +4.9 26 +25 +33 комфорт 1021.6 1003.4
12 9.09 В 4 10 км 8/0
[Cs]
+27.7 +2.0 19 +26 +31 жарко 1019.4 1001.3
15 9.09 В 2 10 км 8/0
[Cs]
+26.5 +1.7 20 +25 +26 комфорт 1018.3 1000.2
18 9.09 штиль 0 10 км 9/4 600 м
[Sc Ci fib]
+20.2 +3.0 32 +20 +20 1019.3 1000.8 +28.3
21 9.09 штиль 0 10 км 8/0
[Ci fib]
+14.8 +4.8 51 +15 +15 1020.7 1001.8
00 10.09 штиль 0 10 км ясно +14.7 +5.0 52 +15 +15 1020.9 1002.0
03 10.09 штиль 0 10 км 3/0
[Ci fib]
+12.9 +6.0 63 +13 +13 1021.2 1002.2
06 10.09 В 1 10 км 4/0
[Ci fib]
+18.0 +8.6 54 +19 +22 1021.9 1003.2 +10.4
09 10.09 В 2 10 км 8/0
[Cs]
+24.5 +6.3 31 +24 +33 комфорт 1021.6 1003.3
12 10.09 ЮВ 3 10 км 6/0
[Cs]
+26.3 +4.1 24 +25 +32 комфорт 1020.6 1002.4
15 10.09 ЮВ 1 10 км 8/0
[Cs]
+26.3 +4.7 25 +25 +27 комфорт 1020.5 1002.3
18 10.09 штиль 0 10 км 8/0
[Cs]
+16.8 +6.6 51 +17 +17 1022.6 1003.8 +27.5
21 10.09 штиль 0 10 км 6/0
[Ci fib]
+14.9 +5.7 54 +15 +15 1023.5 1004.6
00 11.09 штиль 0 10 км 4/0
[Cs]
+14.0 +4.6 53 +14 +14 1024.6 1005.6
03 11.09 штиль 0 10 км 6/0
[Ci fib]
+14.0 +4.6 53 +14 +14 1025.2 1006.2
06 11.09 штиль 0 10 км 9/0
[Cs]
+16.7 +5.3 47 +17 +20 1026.4 1007.5 +11.6
09 11.09 В 2 10 км 8/0
[Cs]
+24.6 +3.8 26 +24 +33 комфорт 1026.3 1007.9
12 11.09 ЮВ 1 10 км 9/0
[Cs]
+26.5 +2.4 21 +25 +34 комфорт 1025.2 1007.0
15 11.09 В 1 10 км 8/0
[Cs]
+27.2 +1.6 19 +25 +27 комфорт 1024.6 1006.4
18 11.09 штиль 0 10 км 6/3 600 м
[Sc Ci fib]
+17.4 +4.4 42 +17 +17 1026.0 1007.2 +27.8
21 11.09 штиль 0 10 км 8/0
[Ci fib]
+14.1 +4.9 54 +14 +14 1026.4 1007.4
00 12.09 штиль 0 10 км 6/0
[Ci fib]
+11.0 +6.7 75 +10 +10 1026.8 1007.6
03 12.09 штиль 0 10 км 4/3 600 м
[Sc Ci fib]
+10.2 +4.6 68 +10 +10 1027.4 1008.1
06 12.09 штиль 0 10 км 8/0
[Ci fib]
+18.2 +5.8 44 +18 +21 1027.8 1009.0 +9.9
09 12.09 В 1 10 км 9/0
[Ci fib]
+26.0 +3.3 23 +25 +35 комфорт 1027.6 1009.3
12 12.09 ЮВ 2 10 км 8/0
[Ci fib]
+28.2 +1.7 18 +26 +33 жарко 1026.3 1008.1
15 12.09 штиль 0 10 км 8/0
[Ci fib]
+27.6 +0.4 17 +25 +27 комфорт 1025.5 1007.3
18 12.09 штиль 0 10 км 6/0
[Ci fib]
+16.8 +3.1 40 +17 +17 1027.2 1008.3 +28.8
21 12.09 СЗ 1 10 км 8/0
[Ci fib]
+18.1 +2.0 34 +19 +19 1027.1 1008.3
00 13.09 штиль 0 10 км 8/0
[Ci fib]
+14.3 +4.3 51 +14 +14 1027.4 1008.4
03 13.09 штиль 0 10 км 6/0
[Ci fib]
+12.1 +5.3 63 +12 +12 1027.6 1008.4
06 13.09 штиль 0 10 км 8/0
[Ci fib]
+16.9 +6.1 49 +17 +20 1028.1 1009.2 +10.5
09 13.09 З 2 10 км 3/0
[Ci fib]
+25.5 +8.1 33 +26 +35 жарко 1027.0 1008.7
12 13.09 ЮЗ 2 10 км 8/8 600 м
[Cu med, cong]
+28.7 +4.9 22 +27 +29 жарко 1024.8 1006.7
15 13.09 З 4 10 км 8/3 1000 м
[Cu med, cong Ac trans Ci fib]
+27.7 +7.6 28 +27 +28 жарко 1023.5 1005.4
18 13.09 З 1 10 км 3/0
[Ci fib]
+18.7 +8.7 52 +20 +20 1024.9 1006.2 +29.7
21 13.09 СЗ 1 10 км 3/0
[Ac trans]
+18.9 +9.1 53 +21 +21 комфорт 1025.2 1006.5
00 14.09 З 1 10 км 8/0
[Ac trans]
+19.1 +9.0 52 +21 +21 комфорт 1025.5 1006.8
03 14.09 СЗ 1 10 км 9/0
[Ac trans Ci fib]
+16.4 +9.8 65 +17 +17 1025.2 1006.4
06 14.09 З 2 10 км 9/9 600 м
[Cb cap]
+18.1 +10.2 60 +19 +19 1025.8 1007.1 +15.6
09 14.09 СЗ 3 10 км 9/8 600 м
[Cb cap Ac trans]
+21.3 +11.9 55 +23 +24 комфорт 1025.8 1007.3
12 14.09 СЗ 5
{12}
10 км 9/6 600 м
[Cb cap Ac trans]
+18.3 +10.9 62 +18 +19 1027.3 1008.5
15 14.09 СЗ 4 10 км ясно +20.6 +4.6 35 +21 +22 комфорт 1026.4 1007.8
18 14.09 штиль 0 10 км 8/0
[Cs]
+15.1 +3.3 45 +15 +15 1028.1 1009.1 +22.3
21 14.09 З 1 10 км 3/0
[Ci fib]
+11.1 +3.9 61 +11 +11 1029.6 1010.3
00 15.09 СЗ 1 10 км 4/0
[Ci fib]
+10.4 +3.9 64 +10 +10 1029.9 1010.5
03 15.09 штиль 0 10 км 6/0
[Ci fib]
+5.6 +3.8 88 +5 +5 1029.8 1010.1
06 15.09 СЗ 1 10 км 8/0
[Ci fib]
+11.8 +5.9 67 +12 +14 1029.4 1010.2 +5.4
09 15.09 ЮВ 1 10 км 4/0
[Ci fib]
+19.7 +3.0 33 +21 +32 комфорт 1027.7 1009.0
12 15.09 Ю 2 10 км 5/0
[Ci fib]
+22.0 +3.6 30 +22 +29 комфорт 1024.9 1006.4
15 15.09 Ю 1 10 км 6/0
[Ci fib]
+22.2 +3.3 29 +22 +23 комфорт 1022.5 1004.0
18 15.09 штиль 0 10 км 3/0
[Ci fib]
+12.5 +3.5 54 +12 +12 1022.2 1003.1 +22.7
21 15.09 штиль 0 10 км 4/0
[Ci fib]
+11.3 +4.3 62 +11 +11 1020.4 1001.3

 

Местоположение метеостанции Бельцы (Молдова): широта 47.78 долгота 27.95 высота над уровнем моря 102 м.

В архиве по умолчанию представлена погода в Бельцах за последнюю неделю. Архивные данные за месяц целиком и за предыдущие месяцы, начиная с января 2011 года, Вы можете получить, выбрав интересующий диапазон дат из раскрывающегося списка и нажав кнопку "Ввод!".


*Определитесь, кто Вы:
робот инопланетянин человек

Внимание! Время в таблицах - всемирное. Для получения местного времени необходимо прибавить поправку, которая равна 2 ч.

Смотрите также архив погоды в соседних городах и на ближайших метеорологических станциях:

Погода в Фалештах (Молдова) (29 км)
Погода в Корнестах (Молдова) (51 км)
Погода в Сороках (Молдова) (53 км)
Погода в Штефанешты (Румыния) (55 км)
Погода в Бравичах (Молдова) (58 км)
Погода в Каменке (Молдова) (62 км)
Погода в Яссы (Румыния) (72 км)
Погода в Могилев-Подольском (Винницкая область, Украина) (76 км)
Погода в Рыбнице (Молдова) (80 км)
Погода в Кодрах (Молдова) (83 км)

Пояснения к столбцам:

Ветер - указаны скорость ветра в м/с - средняя за 10 мин, порывы в срок и между сроками (в фигурных скобках) и направление, откуда дует ветер: С - северный, СВ - северо-восточный, В - восточный, ЮВ - юго-восточный, Ю - южный, ЮЗ - юго-западный, З - западный, СЗ - северо-западный.
Видимость - горизонтальная дальность видимости в метрах или километрах. При видимости от 1 до 10 км при отсутствии осадков обычно наблюдается дымка, при ухудшении видимости до 1 км и менее - туман. В сухую погоду видимость может ухудшаться дымом, пылью или мглою.
Явления - указаны атмосферные явления, наблюдавшиеся в срок или в последний час перед сроком; фигурными скобками обозначены явления, наблюдавшиеся между сроками (за 1-3 часа до срока); квадратными скобками обозначены град или гололедные отложения с указанием их диаметра в мм.
Облачность - указаны через наклонную черту общая и нижняя облачность в баллах и высота нижней границы облаков в метрах; квадратными скобками обозначены формы облаков: Ci - перистые, Cs - перисто-слоистые, Cc - перисто-кучевые, Ac - высококучевые, As - высокослоистые, Sc - слоисто-кучевые, Ns - слоисто-дождевые, Cu - кучевые, Cb - кучево-дождевые. Подробнее классификацию облаков см. в Атласе облаков (PDF).
T - Температура воздуха - температура, измеренная на высоте 2 м над землей.
Td - Температура точки росы - температура, при понижении до которой содержащийся в воздухе водяной пар достигнет насыщения.
f - Относительная влажность воздуха - влажноcть воздуха, измеренная на высоте 2 м над землей.
Te - Эффективная температура - температура, которую ощущает одетый по сезону человек в тени. Характеристика душности погоды. При расчете учитывается влияние влажности воздуха и скорости ветра на теплоощущения человека.
Tes - Эффективная температура на солнце - температура, которую ощущает человек, с поправкой на солнечный нагрев. Характеристика знойности погоды. Зависит от высоты солнца над горизонтом, облачности и скорости ветра. Ночью, в пасмурную погоду, а также при ветре 12 м/с и более поправка равна нулю.
P - Атмосферное давление - приведенное к уровню моря атмосферное давление.
Po - Атмосферное давление - измеренное на уровне метеостанции атмосферное давление.
Tmin - Минимальная температура - минимум температуры воздуха на высоте 2 м над землей.
Tmax - Максимальная температура - максимум температуры воздуха на высоте 2 м над землей.
R - Количество осадков - Количество выпавших осадков за период времени, мм. При наведении курсора мыши на число - период времени, за который выпало указанное количество осадков.
R24 - Количество осадков - Количество выпавших осадков за 24 часа, мм.
S - Снежный покров - Высота снежного покрова, см. При наведении курсора мыши на число - состояние снежного покрова и степень покрытия местности в баллах.